| time (UTC) | temp F | wind direction | speed MPH | gust MPH | rain 1hr in | rain 24hr in | rain mn in | humidity % | barometer mb |
| 20260906142031 | 67 | 4 | 0.0 | 3.0 | 0.00 | 0.21 | 0.21 | 72 | 1011.1 |
| 20260906141559 | 67 | 87 | 0.0 | 2.0 | 0.00 | 0.21 | 0.21 | 72 | 1011.1 |
| 20260906141031 | 67 | 141 | 0.0 | 1.0 | 0.00 | 0.21 | 0.21 | 72 | 1011.1 |
| 20260906140531 | 67 | 68 | 0.0 | 2.0 | 0.00 | 0.21 | 0.21 | 71 | 1011.0 |
| 20260906140057 | 67 | 107 | 0.0 | 2.0 | 0.00 | 0.21 | 0.21 | 72 | 1011.1 |
| 20260906135532 | 66 | 62 | 0.0 | 2.0 | 0.00 | 0.21 | 0.21 | 72 | 1011.2 |
| 20260906135031 | 66 | 155 | 0.0 | 1.0 | 0.00 | 0.21 | 0.21 | 71 | 1011.3 |
| 20260906134544 | 66 | 96 | 0.0 | 1.0 | 0.00 | 0.21 | 0.21 | 72 | 1011.3 |
| 20260906134034 | 66 | 328 | 0.0 | 2.0 | 0.00 | 0.21 | 0.21 | 72 | 1011.3 |
| 20260906133531 | 66 | 15 | 0.0 | 3.0 | 0.00 | 0.21 | 0.21 | 72 | 1011.2 |
| 20260906133044 | 66 | 0 | 0.0 | 3.0 | 0.00 | 0.21 | 0.21 | 72 | 1011.2 |
| 20260906132532 | 66 | 0 | 0.0 | 3.0 | 0.00 | 0.21 | 0.21 | 72 | 1011.3 |
| 20260906132031 | 66 | 60 | 0.0 | 3.0 | 0.00 | 0.21 | 0.21 | 72 | 1011.4 |
| 20260906131600 | 66 | 297 | 1.0 | 3.0 | 0.00 | 0.21 | 0.21 | 71 | 1011.6 |
| 20260906131031 | 66 | 20 | 0.0 | 3.0 | 0.00 | 0.21 | 0.21 | 72 | 1011.5 |
| 20260906130531 | 66 | 359 | 0.0 | 3.0 | 0.00 | 0.21 | 0.21 | 73 | 1011.4 |
| 20260906130057 | 66 | 22 | 0.0 | 2.0 | 0.00 | 0.21 | 0.21 | 74 | 1011.7 |
| 20260906125531 | 66 | 261 | 1.0 | 2.0 | 0.00 | 0.21 | 0.21 | 74 | 1011.7 |
| 20260906125032 | 65 | 0 | 0.0 | 2.0 | 0.00 | 0.21 | 0.21 | 74 | 1011.7 |
| 20260906124547 | 65 | 94 | 0.0 | 2.0 | 0.00 | 0.21 | 0.21 | 74 | 1011.6 |
| 20260906124032 | 65 | 349 | 0.0 | 2.0 | 0.00 | 0.21 | 0.21 | 75 | 1011.8 |
| 20260906123531 | 65 | 195 | 0.0 | 3.0 | 0.00 | 0.21 | 0.21 | 75 | 1011.9 |
| 20260906123101 | 65 | 120 | 0.0 | 3.0 | 0.00 | 0.21 | 0.21 | 75 | 1012.1 |
| 20260906122534 | 65 | 359 | 0.0 | 3.0 | 0.00 | 0.21 | 0.21 | 75 | 1011.9 |
| 20260906122032 | 65 | 20 | 0.0 | 2.0 | 0.00 | 0.21 | 0.21 | 76 | 1011.8 |
| 20260906121553 | 65 | 122 | 0.0 | 2.0 | 0.00 | 0.21 | 0.21 | 77 | 1012.0 |
| 20260906121031 | 65 | 329 | 0.0 | 2.0 | 0.00 | 0.21 | 0.21 | 77 | 1012.0 |
| 20260906120531 | 65 | 58 | 0.0 | 2.0 | 0.00 | 0.21 | 0.21 | 77 | 1012.2 |
| 20260906120054 | 65 | 345 | 0.0 | 2.0 | 0.00 | 0.21 | 0.21 | 77 | 1012.0 |
| 20260906115532 | 65 | 306 | 0.0 | 2.0 | 0.00 | 0.21 | 0.21 | 78 | 1011.9 |
| 20260906115031 | 66 | 330 | 0.0 | 2.0 | 0.00 | 0.21 | 0.21 | 78 | 1011.8 |
| 20260906114556 | 66 | 289 | 0.0 | 2.0 | 0.00 | 0.21 | 0.21 | 79 | 1011.7 |
| 20260906114031 | 66 | 8 | 0.0 | 2.0 | 0.00 | 0.21 | 0.21 | 79 | 1011.6 |
| 20260906113531 | 66 | 94 | 0.0 | 2.0 | 0.00 | 0.21 | 0.21 | 80 | 1011.7 |
| 20260906113043 | 66 | 200 | 0.0 | 2.0 | 0.00 | 0.21 | 0.21 | 81 | 1011.6 |
| 20260906112531 | 66 | 345 | 0.0 | 3.0 | 0.00 | 0.21 | 0.21 | 81 | 1011.7 |
| 20260906112031 | 66 | 320 | 0.0 | 3.0 | 0.00 | 0.21 | 0.21 | 82 | 1011.6 |
| 20260906111602 | 65 | 338 | 0.0 | 3.0 | 0.00 | 0.21 | 0.21 | 83 | 1011.7 |
| 20260906111031 | 65 | 38 | 0.0 | 2.0 | 0.00 | 0.21 | 0.21 | 84 | 1011.8 |
| 20260906110531 | 65 | 58 | 0.0 | 3.0 | 0.00 | 0.21 | 0.21 | 85 | 1011.9 |
| 20260906110046 | 64 | 304 | 0.0 | 3.0 | 0.00 | 0.21 | 0.21 | 85 | 1011.8 |
| 20260906105531 | 64 | 226 | 0.0 | 2.0 | 0.00 | 0.21 | 0.21 | 86 | 1011.8 |
| 20260906105036 | 63 | 326 | 0.0 | 3.0 | 0.00 | 0.21 | 0.21 | 87 | 1011.9 |
| 20260906104545 | 63 | 0 | 0.0 | 3.0 | 0.00 | 0.21 | 0.21 | 88 | 1011.8 |
| 20260906104029 | 63 | 124 | 0.0 | 2.0 | 0.00 | 0.21 | 0.21 | 88 | 1011.9 |
| 20260906103531 | 62 | 229 | 0.0 | 2.0 | 0.00 | 0.21 | 0.21 | 88 | 1012.2 |
| 20260906103049 | 61 | 316 | 0.0 | 4.0 | 0.00 | 0.21 | 0.21 | 88 | 1012.6 |
| 20260906102535 | 61 | 0 | 1.0 | 4.0 | 0.00 | 0.21 | 0.21 | 88 | 1012.8 |
| 20260906102031 | 61 | 354 | 0.0 | 3.0 | 0.00 | 0.21 | 0.21 | 88 | 1012.8 |
| 20260906101544 | 61 | 322 | 0.0 | 5.0 | 0.00 | 0.21 | 0.21 | 88 | 1012.9 |
| 20260906101034 | 61 | 333 | 1.0 | 5.0 | 0.00 | 0.21 | 0.21 | 88 | 1012.9 |
| 20260906100533 | 60 | 9 | 0.0 | 4.0 | 0.00 | 0.21 | 0.21 | 88 | 1012.9 |
| 20260906100057 | 60 | 240 | 0.0 | 3.0 | 0.01 | 0.21 | 0.21 | 88 | 1013.1 |
| 20260906095531 | 61 | 89 | 0.0 | 3.0 | 0.00 | 0.20 | 0.20 | 88 | 1012.9 |
| 20260906095032 | 61 | 32 | 1.0 | 5.0 | 0.00 | 0.20 | 0.20 | 88 | 1013.2 |
| 20260906094550 | 61 | 6 | 0.0 | 5.0 | 0.00 | 0.20 | 0.20 | 88 | 1013.2 |
| 20260906094031 | 61 | 120 | 1.0 | 5.0 | 0.00 | 0.20 | 0.20 | 88 | 1013.3 |
| 20260906093534 | 61 | 317 | 0.0 | 3.0 | 0.00 | 0.20 | 0.20 | 89 | 1013.2 |
| 20260906093042 | 60 | 280 | 0.0 | 3.0 | 0.00 | 0.20 | 0.20 | 88 | 1013.2 |
| 20260906092531 | 60 | 25 | 1.0 | 3.0 | 0.00 | 0.20 | 0.20 | 88 | 1013.5 |
| 20260906092031 | 60 | 226 | 0.0 | 2.0 | 0.00 | 0.20 | 0.20 | 88 | 1013.5 |
| 20260906091546 | 60 | 355 | 0.0 | 2.0 | 0.00 | 0.20 | 0.20 | 88 | 1013.8 |
| 20260906091031 | 60 | 264 | 0.0 | 2.0 | 0.01 | 0.20 | 0.20 | 89 | 1013.7 |
| 20260906090531 | 60 | 304 | 0.0 | 1.0 | 0.01 | 0.20 | 0.20 | 89 | 1013.9 |
| 20260906090045 | 60 | 307 | 0.0 | 3.0 | 0.00 | 0.19 | 0.19 | 89 | 1014.1 |
| 20260906085532 | 60 | 220 | 0.0 | 3.0 | 0.01 | 0.19 | 0.19 | 89 | 1013.9 |
| 20260906085033 | 60 | 301 | 0.0 | 1.0 | 0.02 | 0.19 | 0.19 | 89 | 1014.0 |
| 20260906084544 | 60 | 0 | 0.0 | 1.0 | 0.02 | 0.19 | 0.19 | 89 | 1014.1 |
| 20260906084032 | 60 | 326 | 0.0 | 1.0 | 0.02 | 0.19 | 0.19 | 89 | 1014.1 |
| 20260906083531 | 60 | 25 | 0.0 | 1.0 | 0.02 | 0.19 | 0.19 | 89 | 1014.1 |
| 20260906083050 | 60 | 0 | 0.0 | 1.0 | 0.02 | 0.19 | 0.19 | 89 | 1014.1 |
| 20260906082531 | 60 | 0 | 0.0 | 1.0 | 0.02 | 0.19 | 0.19 | 89 | 1014.4 |
| 20260906082031 | 59 | 243 | 0.0 | 1.0 | 0.03 | 0.19 | 0.19 | 89 | 1014.3 |
| 20260906081545 | 59 | 316 | 0.0 | 1.0 | 0.03 | 0.19 | 0.19 | 89 | 1014.3 |
| 20260906081030 | 59 | 0 | 0.0 | 1.0 | 0.02 | 0.18 | 0.18 | 89 | 1014.5 |
| 20260906080531 | 59 | 0 | 0.0 | 1.0 | 0.02 | 0.18 | 0.18 | 89 | 1014.6 |
| 20260906080053 | 59 | 22 | 0.0 | 1.0 | 0.02 | 0.18 | 0.18 | 89 | 1014.7 |
| 20260906075547 | 59 | 252 | 0.0 | 1.0 | 0.02 | 0.18 | 0.18 | 89 | 1014.6 |
| 20260906075031 | 59 | 82 | 0.0 | 1.0 | 0.03 | 0.17 | 0.17 | 89 | 1014.6 |
| 20260906074550 | 59 | 355 | 0.0 | 2.0 | 0.04 | 0.17 | 0.17 | 89 | 1014.5 |
| 20260906074031 | 59 | 0 | 0.0 | 2.0 | 0.07 | 0.17 | 0.17 | 89 | 1014.7 |
| 20260906073531 | 59 | 205 | 0.0 | 2.0 | 0.09 | 0.17 | 0.17 | 89 | 1014.6 |
| 20260906073051 | 59 | 117 | 0.0 | 1.0 | 0.09 | 0.17 | 0.17 | 89 | 1014.8 |
| 20260906072531 | 59 | 215 | 0.0 | 1.0 | 0.09 | 0.17 | 0.17 | 89 | 1014.9 |
| 20260906072031 | 58 | 0 | 0.0 | 1.0 | 0.08 | 0.16 | 0.16 | 89 | 1014.9 |
| 20260906071544 | 58 | 100 | 0.0 | 1.0 | 0.08 | 0.16 | 0.16 | 88 | 1014.9 |
| 20260906071031 | 58 | 0 | 0.0 | 1.0 | 0.08 | 0.16 | 0.16 | 88 | 1014.9 |
| 20260906070531 | 57 | 0 | 0.0 | 1.0 | 0.08 | 0.16 | 0.16 | 88 | 1014.9 |
| 20260906070042 | 57 | 0 | 0.0 | 1.0 | 0.08 | 0.16 | 0.16 | 88 | 1015.1 |
| 20260906065531 | 57 | 0 | 0.0 | 1.0 | 0.07 | 0.15 | 0.15 | 88 | 1015.1 |
| 20260906065031 | 57 | 0 | 0.0 | 1.0 | 0.06 | 0.14 | 0.14 | 88 | 1015.0 |
| 20260906064546 | 57 | 0 | 0.0 | 1.0 | 0.04 | 0.12 | 0.12 | 88 | 1015.1 |
| 20260906064031 | 57 | 117 | 0.0 | 1.0 | 0.02 | 0.09 | 0.09 | 88 | 1015.0 |
| 20260906063530 | 57 | 102 | 0.0 | 1.0 | 0.00 | 0.07 | 0.07 | 88 | 1015.2 |
| 20260906063047 | 57 | 214 | 0.0 | 1.0 | 0.00 | 0.07 | 0.07 | 88 | 1015.2 |
| 20260906062530 | 57 | 0 | 0.0 | 1.0 | 0.00 | 0.07 | 0.07 | 88 | 1015.2 |
| 20260906062030 | 57 | 0 | 0.0 | 1.0 | 0.00 | 0.07 | 0.07 | 88 | 1015.2 |
| 20260906061554 | 56 | 0 | 0.0 | 1.0 | 0.00 | 0.07 | 0.07 | 88 | 1015.2 |
| 20260906061033 | 56 | 0 | 0.0 | 1.0 | 0.01 | 0.07 | 0.07 | 88 | 1015.2 |
| 20260906060531 | 56 | 0 | 0.0 | 1.0 | 0.01 | 0.07 | 0.07 | 88 | 1015.2 |
| 20260906060051 | 56 | 291 | 0.0 | 1.0 | 0.01 | 0.07 | 0.07 | 88 | 1015.2 |
| 20260906055531 | 56 | 0 | 0.0 | 1.0 | 0.01 | 0.07 | 0.07 | 88 | 1015.3 |
| 20260906055031 | 56 | 0 | 0.0 | 1.0 | 0.02 | 0.07 | 0.07 | 88 | 1015.2 |
| 20260906054601 | 56 | 0 | 0.0 | 1.0 | 0.02 | 0.07 | 0.07 | 88 | 1015.3 |
| 20260906054031 | 56 | 0 | 0.0 | 1.0 | 0.01 | 0.07 | 0.07 | 88 | 1015.2 |
| 20260906053530 | 56 | 46 | 0.0 | 1.0 | 0.02 | 0.07 | 0.07 | 88 | 1015.4 |
| 20260906053043 | 56 | 70 | 0.0 | 2.0 | 0.02 | 0.07 | 0.07 | 88 | 1015.5 |
| 20260906052531 | 56 | 38 | 0.0 | 2.0 | 0.02 | 0.07 | 0.07 | 88 | 1015.4 |
| 20260906052031 | 56 | 0 | 0.0 | 1.0 | 0.03 | 0.07 | 0.07 | 88 | 1015.5 |
| 20260906051544 | 55 | 238 | 0.0 | 1.0 | 0.02 | 0.06 | 0.06 | 87 | 1015.6 |
| 20260906051031 | 55 | 0 | 0.0 | 1.0 | 0.02 | 0.06 | 0.06 | 87 | 1015.5 |
| 20260906050531 | 55 | 94 | 0.0 | 2.0 | 0.02 | 0.06 | 0.06 | 87 | 1015.5 |
| 20260906045530 | 55 | 74 | 1.0 | 2.0 | 0.03 | 0.06 | 0.06 | 87 | 1015.6 |
| 20260906045031 | 55 | 68 | 0.0 | 1.0 | 0.02 | 0.05 | 0.05 | 87 | 1015.9 |
| 20260906044546 | 55 | 72 | 0.0 | 1.0 | 0.03 | 0.05 | 0.05 | 87 | 1015.8 |
| 20260906044031 | 55 | 70 | 0.0 | 2.0 | 0.03 | 0.05 | 0.05 | 87 | 1016.0 |
| 20260906043530 | 55 | 84 | 1.0 | 2.0 | 0.03 | 0.04 | 0.04 | 87 | 1015.9 |
| 20260906043052 | 55 | 71 | 0.0 | 2.0 | 0.03 | 0.04 | 0.04 | 86 | 1016.2 |
| 20260906042531 | 55 | 63 | 0.0 | 2.0 | 0.02 | 0.03 | 0.03 | 86 | 1016.2 |
| 20260906042031 | 55 | 108 | 0.0 | 2.0 | 0.02 | 0.03 | 0.03 | 86 | 1016.3 |
| 20260906041551 | 55 | 64 | 1.0 | 2.0 | 0.02 | 0.03 | 0.03 | 86 | 1016.3 |
| 20260906041031 | 55 | 104 | 0.0 | 1.0 | 0.02 | 0.03 | 0.03 | 86 | 1016.3 |
| 20260906040531 | 55 | 94 | 0.0 | 1.0 | 0.02 | 0.03 | 0.03 | 86 | 1016.5 |
| 20260906040049 | 55 | 65 | 0.0 | 2.0 | 0.02 | 0.03 | 0.03 | 86 | 1016.5 |
| 20260906035530 | 55 | 82 | 1.0 | 2.0 | 0.01 | 0.03 | 0.03 | 86 | 1016.6 |
| 20260906035031 | 55 | 106 | 1.0 | 1.0 | 0.02 | 0.03 | 0.03 | 86 | 1016.6 |
| 20260906034549 | 55 | 72 | 0.0 | 1.0 | 0.01 | 0.02 | 0.02 | 85 | 1016.7 |
| 20260906034030 | 55 | 63 | 0.0 | 1.0 | 0.00 | 0.01 | 0.01 | 85 | 1016.8 |
| 20260906033530 | 55 | 84 | 0.0 | 1.0 | 0.00 | 0.01 | 0.01 | 85 | 1017.0 |
| 20260906033039 | 55 | 72 | 0.0 | 1.0 | 0.00 | 0.01 | 0.01 | 85 | 1017.0 |
| 20260906032530 | 55 | 68 | 0.0 | 1.0 | 0.00 | 0.01 | 0.01 | 85 | 1017.1 |
| 20260906032034 | 55 | 85 | 0.0 | 1.0 | 0.01 | 0.01 | 0.01 | 85 | 1017.2 |
| 20260906031608 | 55 | 72 | 0.0 | 1.0 | 0.01 | 0.01 | 0.01 | 84 | 1017.2 |
| 20260906031034 | 55 | 66 | 0.0 | 1.0 | 0.01 | 0.01 | 0.01 | 84 | 1017.5 |
| 20260906030531 | 55 | 68 | 0.0 | 1.0 | 0.01 | 0.01 | 0.01 | 84 | 1017.5 |
| 20260906030045 | 55 | 62 | 0.0 | 1.0 | 0.01 | 0.01 | 0.01 | 84 | 1017.7 |
| 20260906025531 | 55 | 72 | 0.0 | 1.0 | 0.00 | 0.00 | 0.00 | 84 | 1017.7 |
| 20260906025032 | 55 | 91 | 0.0 | 1.0 | 0.00 | 0.00 | 0.00 | 83 | 1017.9 |
| 20260906024556 | 55 | 79 | 0.0 | 1.0 | 0.00 | 0.00 | 0.00 | 83 | 1018.0 |
| 20260906024031 | 55 | 60 | 0.0 | 1.0 | 0.00 | 0.00 | 0.00 | 83 | 1018.2 |
| 20260906023531 | 55 | 76 | 0.0 | 1.0 | 0.00 | 0.00 | 0.00 | 82 | 1018.1 |
| 20260906023100 | 55 | 53 | 0.0 | 1.0 | 0.00 | 0.00 | 0.00 | 82 | 1018.4 |
| 20260906022531 | 55 | 88 | 0.0 | 1.0 | 0.00 | 0.00 | 0.00 | 82 | 1018.5 |
| 20260906022030 | 55 | 0 | 0.0 | 1.0 | 0.00 | 0.00 | 0.00 | 82 | 1018.5 |
| 20260906021552 | 55 | 0 | 0.0 | 1.0 | 0.00 | 0.00 | 0.00 | 81 | 1018.5 |
| 20260906021030 | 55 | 88 | 0.0 | 1.0 | 0.00 | 0.00 | 0.00 | 81 | 1018.5 |
| 20260906020534 | 55 | 65 | 0.0 | 1.0 | 0.00 | 0.00 | 0.00 | 81 | 1018.6 |
| 20260906020048 | 56 | 0 | 0.0 | 1.0 | 0.00 | 0.00 | 0.00 | 80 | 1018.7 |
| 20260906015530 | 56 | 95 | 0.0 | 1.0 | 0.00 | 0.00 | 0.00 | 80 | 1018.9 |
| 20260906015030 | 56 | 90 | 0.0 | 1.0 | 0.00 | 0.00 | 0.00 | 80 | 1018.9 |
| 20260906014553 | 56 | 0 | 0.0 | 1.0 | 0.00 | 0.00 | 0.00 | 80 | 1019.0 |
| 20260906014032 | 56 | 74 | 0.0 | 1.0 | 0.00 | 0.00 | 0.00 | 80 | 1018.9 |
| 20260906013600 | 56 | 85 | 0.0 | 2.0 | 0.00 | 0.00 | 0.00 | 80 | 1018.9 |
| 20260906013048 | 56 | 0 | 0.0 | 2.0 | 0.00 | 0.00 | 0.00 | 80 | 1019.1 |
| 20260906012530 | 56 | 73 | 1.0 | 2.0 | 0.00 | 0.00 | 0.00 | 80 | 1019.1 |
| 20260906012030 | 56 | 89 | 1.0 | 2.0 | 0.00 | 0.00 | 0.00 | 80 | 1019.1 |
| 20260906011555 | 56 | 72 | 0.0 | 2.0 | 0.00 | 0.00 | 0.00 | 80 | 1019.2 |
| 20260906011032 | 56 | 96 | 0.0 | 1.0 | 0.00 | 0.00 | 0.00 | 80 | 1019.3 |
| 20260906010532 | 56 | 83 | 0.0 | 1.0 | 0.00 | 0.00 | 0.00 | 81 | 1019.3 |
| 20260906010054 | 56 | 77 | 0.0 | 1.0 | 0.00 | 0.00 | 0.00 | 81 | 1019.4 |
| 20260906005531 | 55 | 93 | 0.0 | 2.0 | 0.00 | 0.00 | 0.00 | 81 | 1019.6 |
| 20260906005031 | 55 | 0 | 0.0 | 2.0 | 0.00 | 0.00 | 0.00 | 81 | 1019.6 |
| 20260906004549 | 55 | 0 | 0.0 | 1.0 | 0.00 | 0.00 | 0.00 | 81 | 1019.7 |
| 20260906004032 | 55 | 0 | 0.0 | 1.0 | 0.00 | 0.00 | 0.00 | 81 | 1019.9 |
| 20260906003531 | 55 | 0 | 0.0 | 1.0 | 0.00 | 0.00 | 0.00 | 81 | 1019.9 |
| 20260906003047 | 55 | 100 | 0.0 | 1.0 | 0.00 | 0.00 | 0.00 | 81 | 1019.9 |
| 20260906002530 | 56 | 0 | 0.0 | 1.0 | 0.00 | 0.00 | 0.00 | 81 | 1020.1 |
| 20260906002031 | 56 | 0 | 0.0 | 1.0 | 0.00 | 0.00 | 0.00 | 81 | 1020.1 |
| 20260906001555 | 55 | 0 | 0.0 | 1.0 | 0.00 | 0.00 | 0.00 | 82 | 1020.1 |
| 20260906001030 | 55 | 101 | 0.0 | 1.0 | 0.00 | 0.00 | 0.00 | 82 | 1020.2 |
| 20260906000530 | 55 | 38 | 0.0 | 1.0 | 0.00 | 0.00 | 0.00 | 82 | 1020.4 |
| 20260906000053 | 55 | 0 | 0.0 | 1.0 | 0.00 | 0.00 | 0.00 | 82 | 1020.4 |
| 20260905235530 | 55 | 0 | 0.0 | 1.0 | 0.00 | 0.00 | 0.00 | 82 | 1020.3 |
| 20260905235033 | 55 | 0 | 0.0 | 1.0 | 0.00 | 0.00 | 0.00 | 82 | 1020.3 |
| 20260905234553 | 55 | 0 | 0.0 | 3.0 | 0.00 | 0.00 | 0.00 | 82 | 1020.5 |
| 20260905234031 | 55 | 0 | 0.0 | 3.0 | 0.00 | 0.00 | 0.00 | 82 | 1020.5 |
| 20260905233532 | 55 | 68 | 0.0 | 1.0 | 0.00 | 0.00 | 0.00 | 82 | 1020.4 |
| 20260905233053 | 55 | 0 | 0.0 | 0.0 | 0.00 | 0.00 | 0.00 | 82 | 1020.5 |
| 20260905232530 | 55 | 0 | 0.0 | 1.0 | 0.00 | 0.00 | 0.00 | 82 | 1020.5 |
| 20260905232031 | 55 | 0 | 0.0 | 1.0 | 0.00 | 0.00 | 0.00 | 82 | 1020.5 |
| 20260905231543 | 55 | 294 | 0.0 | 1.0 | 0.00 | 0.00 | 0.00 | 82 | 1020.7 |
| 20260905231031 | 55 | 0 | 0.0 | 1.0 | 0.00 | 0.00 | 0.00 | 82 | 1020.8 |
| 20260905230531 | 55 | 70 | 0.0 | 1.0 | 0.00 | 0.00 | 0.00 | 82 | 1020.8 |
| 20260905230049 | 55 | 0 | 0.0 | 1.0 | 0.00 | 0.00 | 0.00 | 82 | 1020.8 |
| 20260905225535 | 55 | 65 | 0.0 | 1.0 | 0.00 | 0.00 | 0.00 | 83 | 1020.8 |
| 20260905225030 | 55 | 0 | 0.0 | 1.0 | 0.00 | 0.00 | 0.00 | 83 | 1020.9 |
| 20260905224542 | 55 | 0 | 0.0 | 1.0 | 0.00 | 0.00 | 0.00 | 83 | 1020.9 |
| 20260905224032 | 55 | 0 | 0.0 | 1.0 | 0.00 | 0.00 | 0.00 | 83 | 1021.1 |
| 20260905223531 | 54 | 0 | 0.0 | 1.0 | 0.00 | 0.00 | 0.00 | 83 | 1020.9 |
| 20260905223112 | 54 | 0 | 0.0 | 1.0 | 0.00 | 0.00 | 0.00 | 83 | 1021.0 |
| 20260905222531 | 54 | 284 | 0.0 | 1.0 | 0.00 | 0.00 | 0.00 | 83 | 1021.1 |
| 20260905222030 | 54 | 0 | 0.0 | 1.0 | 0.00 | 0.00 | 0.00 | 83 | 1021.3 |
| 20260905221543 | 54 | 0 | 0.0 | 0.0 | 0.00 | 0.00 | 0.00 | 83 | 1021.3 |
| 20260905221031 | 54 | 0 | 0.0 | 1.0 | 0.00 | 0.00 | 0.00 | 83 | 1021.4 |
| 20260905220530 | 54 | 0 | 0.0 | 1.0 | 0.00 | 0.00 | 0.00 | 83 | 1021.4 |
| 20260905220052 | 54 | 0 | 0.0 | 1.0 | 0.00 | 0.00 | 0.00 | 83 | 1021.4 |
| 20260905215533 | 54 | 0 | 0.0 | 1.0 | 0.00 | 0.00 | 0.00 | 83 | 1021.4 |
| 20260905215031 | 54 | 0 | 0.0 | 0.0 | 0.00 | 0.00 | 0.00 | 82 | 1021.3 |
| 20260905214547 | 54 | 0 | 0.0 | 0.0 | 0.00 | 0.00 | 0.00 | 82 | 1021.4 |
| 20260905214034 | 54 | 0 | 0.0 | 0.0 | 0.00 | 0.00 | 0.00 | 82 | 1021.5 |
| 20260905213533 | 54 | 0 | 0.0 | 0.0 | 0.00 | 0.00 | 0.00 | 82 | 1021.5 |
| 20260905213047 | 55 | 0 | 0.0 | 0.0 | 0.00 | 0.00 | 0.00 | 82 | 1021.5 |
| 20260905212533 | 55 | 0 | 0.0 | 0.0 | 0.00 | 0.00 | 0.00 | 82 | 1021.5 |
| 20260905212034 | 55 | 0 | 0.0 | 0.0 | 0.00 | 0.00 | 0.00 | 81 | 1021.5 |
| 20260905211606 | 55 | 0 | 0.0 | 0.0 | 0.00 | 0.00 | 0.00 | 81 | 1021.5 |
| 20260905211032 | 55 | 0 | 0.0 | 0.0 | 0.00 | 0.00 | 0.00 | 81 | 1021.5 |
| 20260905210531 | 55 | 0 | 0.0 | 0.0 | 0.00 | 0.00 | 0.00 | 81 | 1021.7 |
| 20260905210059 | 55 | 0 | 0.0 | 0.0 | 0.00 | 0.00 | 0.00 | 81 | 1021.7 |
| 20260905205533 | 55 | 0 | 0.0 | 1.0 | 0.00 | 0.00 | 0.00 | 81 | 1021.8 |
| 20260905205033 | 55 | 0 | 0.0 | 1.0 | 0.00 | 0.00 | 0.00 | 81 | 1021.9 |
| 20260905204547 | 55 | 0 | 0.0 | 0.0 | 0.00 | 0.00 | 0.00 | 80 | 1021.9 |
| 20260905204032 | 55 | 0 | 0.0 | 0.0 | 0.00 | 0.00 | 0.00 | 80 | 1021.8 |
| 20260905203537 | 56 | 0 | 0.0 | 0.0 | 0.00 | 0.00 | 0.00 | 80 | 1021.7 |
| 20260905203044 | 56 | 0 | 0.0 | 0.0 | 0.00 | 0.00 | 0.00 | 80 | 1021.6 |
| 20260905202536 | 56 | 0 | 0.0 | 0.0 | 0.00 | 0.00 | 0.00 | 80 | 1021.6 |
| 20260905202032 | 56 | 0 | 0.0 | 1.0 | 0.00 | 0.00 | 0.00 | 80 | 1021.4 |
| 20260905201556 | 56 | 0 | 0.0 | 1.0 | 0.00 | 0.00 | 0.00 | 80 | 1021.5 |
| 20260905201032 | 56 | 0 | 0.0 | 1.0 | 0.00 | 0.00 | 0.00 | 80 | 1021.4 |
| 20260905200532 | 56 | 0 | 0.0 | 1.0 | 0.00 | 0.00 | 0.00 | 79 | 1021.5 |
| 20260905200105 | 57 | 0 | 0.0 | 1.0 | 0.00 | 0.00 | 0.00 | 79 | 1021.5 |
| 20260905195533 | 57 | 0 | 0.0 | 1.0 | 0.00 | 0.00 | 0.00 | 79 | 1021.5 |
| 20260905195032 | 57 | 0 | 0.0 | 1.0 | 0.00 | 0.00 | 0.00 | 79 | 1021.5 |
| 20260905194548 | 57 | 0 | 0.0 | 0.0 | 0.00 | 0.00 | 0.00 | 79 | 1021.6 |
| 20260905194032 | 57 | 0 | 0.0 | 0.0 | 0.00 | 0.00 | 0.00 | 79 | 1021.6 |
| 20260905193531 | 57 | 0 | 0.0 | 0.0 | 0.00 | 0.00 | 0.00 | 79 | 1021.6 |
| 20260905193044 | 57 | 0 | 0.0 | 0.0 | 0.00 | 0.00 | 0.00 | 78 | 1021.5 |
| 20260905192536 | 57 | 0 | 0.0 | 1.0 | 0.00 | 0.00 | 0.00 | 78 | 1021.5 |
| 20260905192032 | 57 | 0 | 0.0 | 1.0 | 0.00 | 0.00 | 0.00 | 78 | 1021.5 |
| 20260905191550 | 57 | 0 | 0.0 | 1.0 | 0.00 | 0.00 | 0.00 | 78 | 1021.5 |
| 20260905191032 | 57 | 0 | 0.0 | 0.0 | 0.00 | 0.00 | 0.00 | 78 | 1021.4 |
| 20260905190532 | 57 | 0 | 0.0 | 1.0 | 0.00 | 0.00 | 0.00 | 78 | 1021.5 |
| 20260905190053 | 58 | 0 | 0.0 | 1.0 | 0.00 | 0.00 | 0.00 | 78 | 1021.5 |
| 20260905185533 | 58 | 0 | 0.0 | 1.0 | 0.00 | 0.00 | 0.00 | 78 | 1021.4 |
| 20260905185035 | 58 | 0 | 0.0 | 1.0 | 0.00 | 0.00 | 0.00 | 78 | 1021.3 |
| 20260905184551 | 58 | 0 | 0.0 | 1.0 | 0.00 | 0.00 | 0.00 | 78 | 1021.3 |
| 20260905184034 | 58 | 0 | 0.0 | 1.0 | 0.00 | 0.00 | 0.00 | 77 | 1021.4 |
| 20260905183531 | 58 | 0 | 0.0 | 1.0 | 0.00 | 0.00 | 0.00 | 77 | 1021.4 |
| 20260905183057 | 58 | 0 | 0.0 | 1.0 | 0.00 | 0.00 | 0.00 | 77 | 1021.4 |
| 20260905182531 | 58 | 251 | 0.0 | 1.0 | 0.00 | 0.00 | 0.00 | 77 | 1021.3 |
| 20260905182030 | 58 | 279 | 0.0 | 1.0 | 0.00 | 0.00 | 0.00 | 77 | 1021.4 |
| 20260905181550 | 58 | 335 | 0.0 | 1.0 | 0.00 | 0.00 | 0.00 | 77 | 1021.3 |
| 20260905181030 | 58 | 257 | 0.0 | 1.0 | 0.00 | 0.00 | 0.00 | 77 | 1021.3 |
| 20260905180534 | 59 | 0 | 0.0 | 2.0 | 0.00 | 0.00 | 0.00 | 77 | 1021.3 |
| 20260905180058 | 59 | 276 | 0.0 | 2.0 | 0.00 | 0.00 | 0.00 | 76 | 1021.2 |
| 20260905175530 | 59 | 307 | 0.0 | 1.0 | 0.00 | 0.00 | 0.00 | 76 | 1021.3 |
| 20260905175031 | 59 | 264 | 0.0 | 1.0 | 0.00 | 0.00 | 0.00 | 76 | 1021.2 |
| 20260905174556 | 59 | 238 | 0.0 | 3.0 | 0.00 | 0.00 | 0.00 | 76 | 1021.1 |
| 20260905174030 | 59 | 259 | 0.0 | 3.0 | 0.00 | 0.00 | 0.00 | 76 | 1021.3 |
| 20260905173532 | 60 | 223 | 0.0 | 2.0 | 0.00 | 0.00 | 0.00 | 76 | 1021.3 |
| 20260905173100 | 60 | 214 | 0.0 | 2.0 | 0.00 | 0.00 | 0.00 | 76 | 1021.1 |
| 20260905172530 | 60 | 0 | 0.0 | 2.0 | 0.00 | 0.00 | 0.00 | 76 | 1021.1 |
| 20260905172030 | 60 | 270 | 0.0 | 2.0 | 0.00 | 0.00 | 0.00 | 76 | 1021.2 |
| 20260905171546 | 60 | 263 | 0.0 | 2.0 | 0.00 | 0.00 | 0.00 | 76 | 1021.0 |
| 20260905171033 | 60 | 301 | 0.0 | 1.0 | 0.00 | 0.00 | 0.00 | 76 | 1021.2 |
| 20260905170531 | 60 | 273 | 0.0 | 1.0 | 0.00 | 0.00 | 0.00 | 75 | 1021.1 |
| 20260905170054 | 60 | 272 | 0.0 | 2.0 | 0.00 | 0.00 | 0.00 | 75 | 1021.0 |
| 20260905165532 | 61 | 320 | 0.0 | 2.0 | 0.00 | 0.00 | 0.00 | 75 | 1021.1 |
| 20260905165030 | 61 | 255 | 0.0 | 2.0 | 0.00 | 0.00 | 0.00 | 74 | 1021.0 |
| 20260905164543 | 61 | 271 | 0.0 | 3.0 | 0.00 | 0.00 | 0.00 | 73 | 1020.9 |
| 20260905164033 | 60 | 266 | 1.0 | 3.0 | 0.00 | 0.00 | 0.00 | 73 | 1020.9 |
| 20260905163530 | 60 | 266 | 0.0 | 2.0 | 0.00 | 0.00 | 0.00 | 72 | 1020.9 |
| 20260905163048 | 60 | 276 | 0.0 | 4.0 | 0.00 | 0.00 | 0.00 | 72 | 1020.8 |
| 20260905162532 | 60 | 293 | 1.0 | 4.0 | 0.00 | 0.00 | 0.00 | 72 | 1020.9 |
| 20260905162030 | 60 | 289 | 1.0 | 2.0 | 0.00 | 0.00 | 0.00 | 72 | 1020.8 |
| 20260905161543 | 60 | 271 | 1.0 | 2.0 | 0.00 | 0.00 | 0.00 | 72 | 1020.7 |
| 20260905161031 | 60 | 345 | 0.0 | 3.0 | 0.00 | 0.00 | 0.00 | 72 | 1020.8 |
| 20260905160530 | 60 | 285 | 0.0 | 3.0 | 0.00 | 0.00 | 0.00 | 72 | 1020.7 |
| 20260905160055 | 60 | 255 | 1.0 | 3.0 | 0.00 | 0.00 | 0.00 | 72 | 1020.9 |
| 20260905155531 | 60 | 229 | 1.0 | 3.0 | 0.00 | 0.00 | 0.00 | 72 | 1020.9 |
| 20260905155030 | 60 | 235 | 1.0 | 3.0 | 0.00 | 0.00 | 0.00 | 72 | 1021.0 |
| 20260905154548 | 60 | 309 | 1.0 | 3.0 | 0.00 | 0.00 | 0.00 | 72 | 1020.9 |
| 20260905154034 | 60 | 284 | 1.0 | 3.0 | 0.00 | 0.00 | 0.00 | 71 | 1021.0 |
| 20260905153529 | 60 | 302 | 1.0 | 4.0 | 0.00 | 0.00 | 0.00 | 71 | 1020.9 |
| 20260905153055 | 60 | 314 | 1.0 | 4.0 | 0.00 | 0.00 | 0.00 | 71 | 1021.0 |
| 20260905152531 | 60 | 309 | 1.0 | 4.0 | 0.00 | 0.00 | 0.00 | 70 | 1021.0 |
| 20260905152032 | 61 | 274 | 1.0 | 3.0 | 0.00 | 0.00 | 0.00 | 71 | 1021.1 |
| 20260905151551 | 61 | 284 | 1.0 | 3.0 | 0.00 | 0.00 | 0.00 | 71 | 1021.1 |
| 20260905151035 | 61 | 275 | 1.0 | 3.0 | 0.00 | 0.00 | 0.00 | 71 | 1021.0 |
| 20260905150532 | 61 | 278 | 1.0 | 5.0 | 0.00 | 0.00 | 0.00 | 71 | 1021.1 |
| 20260905150050 | 61 | 308 | 1.0 | 5.0 | 0.00 | 0.00 | 0.00 | 72 | 1021.0 |
| 20260905145532 | 61 | 287 | 2.0 | 5.0 | 0.00 | 0.01 | 0.00 | 71 | 1021.0 |
| 20260905145032 | 61 | 281 | 1.0 | 4.0 | 0.00 | 0.01 | 0.00 | 71 | 1021.0 |
| 20260905144546 | 61 | 257 | 1.0 | 3.0 | 0.00 | 0.01 | 0.00 | 72 | 1021.2 |
| 20260905144031 | 61 | 229 | 0.0 | 4.0 | 0.00 | 0.01 | 0.00 | 72 | 1021.1 |
| 20260905143534 | 61 | 248 | 1.0 | 4.0 | 0.00 | 0.01 | 0.00 | 71 | 1021.0 |
| 20260905143054 | 62 | 264 | 1.0 | 3.0 | 0.00 | 0.01 | 0.00 | 71 | 1021.0 |
| 20260905142533 | 62 | 290 | 0.0 | 3.0 | 0.00 | 0.01 | 0.00 | 72 | 1021.0 |